{"data":{"norad_id":63948,"epoch":"2026-05-25T03:11:48.624288Z","epoch_age_seconds":53773,"freshness":"FRESH","line1":"1 63948U 25098Y   26145.13320167  .00005555  00000+0  47273-3 0  9990","line2":"2 63948  70.0005  81.6853 0002755 270.0405  90.0439 14.98348902 58008","mean_motion":14.98348902,"eccentricity":0.0002755,"inclination_deg":70.0005,"raan_deg":81.6853,"arg_perigee_deg":270.0405,"mean_anomaly_deg":90.0439,"bstar":0.00047273,"rev_number":5800,"period_min":96.105786714822,"perigee_km":570.08267664529,"apogee_km":573.912200721,"semimajor_km":6950.1344386831,"source":"CELESTRAK","updated_at":"2026-05-25T13:38:20.208192Z"}}